Location: Le Vaud
(46.4779°N, 6.2346°E)
Time: 08:10:04
(UTC+00:00)

FENGYUN 3A - Pass Details

Date: 18 February 2020
Orbit: 824 x 836 km, 98.4° (Epoch: 30 March)

Event Time Altitude Azimuth Distance (km) Brightness Sun altitude
Rises 04:31:33 0° 17° (NNE) 3,396 7.1 -21.9°
Reaches altitude 10° 04:33:58 10° 22° (NNE) 2,458 6.4 -21.4°
Maximum altitude 04:39:20 56° 100° (E) 989 4.3 -20.5°
Drops below altitude 10° 04:44:39 10° 179° (S) 2,441 6.1 -19.6°
Sets 04:47:03 0° 183° (S) 3,370 6.8 -19.2°
